Regional Weather Roundup
Issued by NWS

Home | Current Version | Previous Version | Text Only | Print | Product List | Glossary On
Versions: 1 2 3 4 5 6 7 8 9 10 11 12 13 14 15 16 17 18 19 20 21 22 23 24 25 26 27 28 29 30 31 32 33 34 35 36 37 38 39 40 41 42 43 44 45 46 47 48 49 50
000
ASUS43 KTOP 281108
RWRKS

WEATHER ROUNDUP FOR KANSAS
NATIONAL WEATHER SERVICE GOODLAND KS
600 AM CDT TUE MAR 28 2017

NOTE:  "FAIR" INDICATES FEW OR NO CLOUDS BELOW 12,000 FEET WITH NO
SIGNIFICANT WEATHER AND/OR OBSTRUCTIONS TO VISIBILITY.

KSZ001>006-013>018-027>032-041>047-281200-
NORTHWEST KANSAS

CITY           SKY/WX    TMP DP  RH WIND       PRES   REMARKS
GOODLAND       CLOUDY    44  43  96 SE16      29.89S
HAYS           FOG       43  43 100 SE3       29.99S VSB 1
HILL CITY      CLOUDY    46  46 100 SE10      29.98R FOG
RUSSELL        CLOUDY    38  38 100 S3        29.98R FOG
$$

KSZ061>065-074>080-084>089-281200-
SOUTHWEST KANSAS

CITY           SKY/WX    TMP DP  RH WIND       PRES   REMARKS
DODGE CITY     CLOUDY    45  44  97 SE18      29.94F FOG
ELKHART          N/A     46  37  71 SE15        N/A
GARDEN CITY    CLOUDY    46  44  93 SE13      29.92S FOG
GREAT BEND     CLOUDY    46  44  93 S6        29.99S
LIBERAL        CLOUDY    46  39  76 E15       29.91S
PRATT          CLOUDY    44  42  94 E5        29.98S
$$

KSZ066>073-081>083-090>101-281200-
SOUTHEAST KANSAS

CITY           SKY/WX    TMP DP  RH WIND       PRES   REMARKS
CHANUTE        CLOUDY    51  46  83 NE3       30.01S
COFFEYVILLE    CLOUDY    52  48  86 NE7       30.00S
HUTCHINSON     CLOUDY    49  45  86 SE5       29.99R
MEDICINE LODGE   N/A     42  41  96 E5        29.98R
NEWTON         CLOUDY    48  46  93 E6        29.99S
PARSONS        CLOUDY    52  47  83 VRB3      30.01S
WICHITA INTL   CLOUDY    50  45  83 E8        29.98S
WICHITA JABRA  CLOUDY    49  45  86 E6        29.98S
WICHITA MCCONL CLOUDY    50  44  81 SE9       29.99R
WINFIELD       CLOUDY    50  45  83 E10       29.99R
$$

KSZ007>012-019>026-033>040-048>060-102>105-281200-
NORTHEAST KANSAS

CITY           SKY/WX    TMP DP  RH WIND       PRES   REMARKS
CONCORDIA      MOCLDY    40  40 100 CALM      30.01R FOG
EMPORIA        CLOUDY    49  47  93 E7        30.01R
LAWRENCE       CLOUDY    50  44  80 N5        30.02S
MANHATTAN      PTCLDY    46  44  93 NE3       30.01R
MARYSVILLE     CLEAR     36  36 100 NE6       30.02S FOG
OLATHE IND     CLOUDY    48  46  93 NE3       30.03R
OLATHE EXE     CLOUDY    47  47 100 N3        30.02R
SALINA         CLOUDY    50  46  86 E5        30.00R
TOPEKA BILLARD PTCLDY    48  45  89 NE3       30.02S
TOPEKA FORBES  CLOUDY    50  44  80 NE6       30.01F
$$



USA.gov is the U.S. government's official web portal to all federal, state and local government web resources and services.